Starlink 4706

operational
NORAD ID: 53779 Int'l Des: 2022-111 Owner: SPXS Country: US Constellation: starlink
LEOCIRCULAR

About Starlink 4706

Description loading...

Live Position

Loading 3D Globe...

Upcoming Passes

Altitude History

Altitude vs Time

uPlot chart will show altitude changes over time

Two-Line Element Set

1 53779U 22111G 25296.96437652 .00001129 00000-0 89017-4 0 9996
2 53779 53.2163 168.0213 0001350 96.4575 263.6571 15.08840930173053
Epoch: Oct 23, 2025 • Age: 18 hours

Current Status

Altitude 542.3 km
Velocity 7.60 km/s
Sub-Earth Point 39.17°N, 16.03°E
Launch Date Sep 11, 2022
Age 3.1 years
Type internet

Technical Details

Classification Payload
Mass 305.00 kg
Dry Mass 290.00 kg
Total Mass 305.00 kg
Length 0.20 m
Diameter 2.80 m
Span 9.00 m
Shape Box + pan
Manufacturer SPXS
Bus Type Starlink
Phase Status In Orbit
Owner/State SPXS/US

Large Constellations

Loading constellations...